Regional Weather Roundup
Issued by NWS Upton, NY

Current Version | Previous Version | Graphics & Text | Print | Product List | Glossary Off
Versions: 1 2 3 4 5 6 7 8 9 10 11 12 13 14 15 16 17 18 19 20 21 22 23 24 25 26 27 28 29 30 31 32 33 34 35 36 37 38 39 40 41 42 43 44 45 46 47 48 49 50

000
ASUS41 KOKX 160808
RWROKX

REGIONAL WEATHER ROUNDUP
NATIONAL WEATHER SERVICE NEW YORK NY
300 AM EST MON JAN 16 2017

NOTE: "FAIR" INDICATES FEW OR NO CLOUDS BELOW 12,000 FEET WITH NO
SIGNIFICANT WEATHER AND/OR OBSTRUCTIONS TO VISIBILITY.

NYZ071-072-176-178-NJZ106-104-160900-
NEW YORK CITY METRO AREA

CITY           SKY/WX    TMP DP  RH WIND       PRES   REMARKS
Central Park   CLEAR     31  20  63 VRB3      30.47R
Wall St Helipt SUNNY     33  22  63 VRB6      30.46S WCI  28
Bronx Bot Gard NOT AVBL
LaGuardia APRT CLEAR     33  19  56 N6        30.45R WCI  28
Kennedy INTL   PTCLDY    31  19  61 N5        30.46R WCI  26
Breezy Point     N/A     32 N/A N/A NE3         N/A
Newark/Liberty CLEAR     27  18  69 N6        30.46R WCI  20
Teterboro      CLEAR     28  20  71 CALM      30.45R
$$

NYZ177-179-078>081-160900-
LONG ISLAND NEW YORK

CITY           SKY/WX    TMP DP  RH WIND       PRES   REMARKS
Jones Beach      N/A    N/A N/A N/A NE8         N/A
Matinecock PT  NOT AVBL
Farmingdale    CLEAR     26  20  77 N5        30.45R WCI  20
MacArthur/ISP  CLEAR     24  19  81 N3        30.44R
Shirley        CLEAR     25  18  74 CALM      30.45R
Westhampton    CLEAR     17  12  80 CALM      30.46R
Southampton    NOT AVBL
Bridgehampton  NOT AVBL
East Hampton     N/A     19  17  89 CALM      30.44R
Montauk          N/A     33  21  61 N5        30.44R WCI  29
$$

NYZ052-065-067-160900-
HUDSON VALLEY

CITY           SKY/WX    TMP DP  RH WIND       PRES   REMARKS
White Plains   CLEAR     24  15  68 NE3       30.42R
Newburgh       CLEAR     19  18  93 CALM      30.44R
Montgomery     CLEAR     17  13  84 CALM      30.43R
Poughkeepsie   CLEAR     16  13  88 CALM      30.45R
Albany         CLEAR     17  13  84 CALM      30.44R
$$

NJZ001-105-106-008-010-013-015-019>022-104-160900-
NEW JERSEY

CITY           SKY/WX    TMP DP  RH WIND       PRES   REMARKS
Newark/Liberty CLEAR     27  18  69 N6        30.46R WCI  20
Teterboro      CLEAR     28  20  71 CALM      30.45R
Caldwell       CLEAR     21  17  84 CALM      30.46R
Somerville     CLOUDY    15  12  88 CALM      30.44R
Linden           N/A     27  19  73 CALM      30.46S
Sussex         CLEAR     14  12  92 CALM      30.43R
Andover          N/A     15  12  88 CALM      30.43S
Trenton        CLEAR     25  19  78 N6        30.44R WCI  18
Millville      PTCLDY    23  22  96 CALM      30.45S
Atlantic City  CLEAR     25  19  78 CALM      30.45R
Wrightstown    CLEAR     25  19  76 NW3       30.43R
Toms River     CLEAR     17  15  92 CALM      30.46R
Belmar         CLEAR     24  20  84 NW3       30.46R
$$

PAZ047>061-062-071-160900-
EASTERN PENNSYLVANIA

CITY           SKY/WX    TMP DP  RH WIND       PRES   REMARKS
Philadelphia   CLEAR     29  20  69 NW6       30.47R WCI  23
Allentown      CLOUDY    18  14  84 CALM      30.45R
Scranton       CLOUDY    15  12  88 E5        30.41R WCI   8
$$

CTZ002-004>006-009-010-012-RIZ004-006-007-MAZ004-011-015-160900-
SOUTHERN NEW ENGLAND
 IN CT

CITY           SKY/WX    TMP DP  RH WIND       PRES   REMARKS
Bradley INTL   CLEAR     19  14  81 CALM      30.44R
Hartford       CLEAR     18  16  92 CALM      30.45S
Danbury        CLEAR     16  13  88 CALM      30.44S
Wtrbury/Oxford CLEAR     19  10  68 N6        30.41S WCI  11
Bridgeport     CLEAR     23  17  78 NE3       30.45S
Meriden        CLEAR     19  14  81 CALM      30.45S
New Haven      CLEAR     22  15  75 CALM      30.45R
Chester          N/A     27  14  59 N5        30.42S WCI  21
Groton         CLEAR     22  16  78 N3        30.44S
Wilimantic     CLEAR     18  15  88 CALM      30.45S

 IN RI

CITY           SKY/WX    TMP DP  RH WIND       PRES   REMARKS
Providence     CLEAR     20  15  81 W3        30.44S
Block Island   NOT AVBL
Westerly       CLEAR     20  14  77 CALM      30.44S
 IN MA

CITY           SKY/WX    TMP DP  RH WIND       PRES   REMARKS
Boston         CLEAR     26  11  52 CALM      30.44F
Worcester      CLEAR     21   8  57 S5        30.37S WCI  15
Westfield      CLEAR     16  13  88 CALM      30.43R
Provincetown   CLEAR     32  18  56 N8        30.43S WCI  25
Nantucket      CLEAR     25  17  72 N5        30.42S WCI  19
$$

ANZ330-335-338-340-345-350-353-355-160900-
COASTAL MARINE OBSERVATIONS


STATION/POSITION TIME  SKY/WX   TEMP    WIND        PRES    VSBY  WAVE
                                AIR SEA DIR/SP/G                  HT/PER
                 (UTC)          (F)     (DEG/KT/KT) (MB)    (MI)  (FT/S)
NY HARB ENTRANCE 0650            36 44  360/  8/ 10 1030.5          1/11
20 S FIRE ISLAND 0750            38 45   30/  8/ 10 1030.7          1/11
GREAT SOUTH BAY  NOT AVBL
23 SSW MONTAUK P 0650            38 47  300/  2/  4 1030.4          1/11
15 E BARNEGAT LI 0730               44                N/A           2/11
HUDSON CANYON    0650            42 53              1029.9          2/10
KINGS POINT      0742            31 38              1030.9
EXECUTION ROCKS  0745            32      10/ 10/ 10   N/A
CENTRAL LI SOUND 0730            33     360/ 12/ 14   N/A           1/ 2
EASTERN LI SOUND NOT AVBL
ROBBINS REEF     0748            30     340/  6/  9 1031.4
$$


>>>>>>>>>>>>>>>>>>>>>>>>>>>> KEY <<<<<<<<<<<<<<<<<<<<<<<<<<<
>                                                          <
>     SKY/WX - Sky Condition/Present Weather               <
>     TMP    - Temperature in Fahrenheit                   <
>     DP     - Dew Point in Fahrenheit                     <
>     RH     - Relative Humidity in Percent                <
>     WIND   - Direction (from) and Speed in MPH           <
>     PRES   - Mean Sea Level Pressure (inches of Hg)      <
>     WCI    - Wind Chill Index                            <
>     VSB    - VISIBILITY IN MILES                         <
>     HX     - HEAT INDEX                                  <
>     TC     - TEMPERATURE IN CELSIUS                      <
>     VRB    - VARIABLE WIND DIRECTION                     <
>                                                          <
>>>>>>>>>>>>>>>>>>>>>>>>>>>> KEY <<<<<<<<<<<<<<<<<<<<<<<<<<<



USA.gov is the U.S. government's official web portal to all federal, state and local government web resources and services.